Weather History for Meadow Lake, CO

Change the Weather History Date:

Sunday, March 18, 2012

  Actual Average (KCOS) Record (KCOS)
Temperature  
Mean Temperature 50 °F 40 °F  
Max Temperature 61 °F 53 °F 78 °F (1907)
Min Temperature 38 °F 27 °F -6 °F (1965)
Degree Days  
Heating Degree Days 16 25  
Month to date heating degree days 496  
Since 1 July heating degree days 5059  
Cooling Degree Days 0 0  
Month to date cooling degree days 0  
Year to date cooling degree days 0  
Moisture  
Dew Point 12 °F    
Average Humidity 23    
Maximum Humidity 48    
Minimum Humidity 14    
Precipitation  
Precipitation 0.00 in 0.04 in 1.63 in (1998)
Month to date precipitation 0.54  
Year to date precipitation 1.20  
Snow  
Snow 0.00 in 0.30 in 15.00 in (1998)
Month to date snowfall 4.5  
Since 1 July snowfall 28.5  
Snow Depth -    
Sea Level Pressure  
Sea Level Pressure 29.60 in    
Wind  
Wind Speed 15 mph (South)    
Max Wind Speed 44 mph    
Max Gust Speed 52 mph    
Visibility 10 miles    
Events      
T = Trace of Precipitation, MM = Missing Value Source: NWS Daily Summary

Daily Weather History Graph

Daily Weather History Graph

Search for Another Location

Airport:

Trip Planner

Search our weather history database for the weather conditions in past years. The results will help you decide how hot, cold, wet, or windy it might be!

Date:

Astronomy

Mar. 18, 2012 Rise Set
Actual Time 7:04 AM MDT 7:08 PM MDT
Civil Twilight 6:37 AM MDT 7:35 PM MDT
Nautical Twilight 6:06 AM MDT 8:06 PM MDT
Astronomical Twilight 5:34 AM MDT 8:38 PM MDT
Moon 4:42 AM MDT (3/18) 3:39 PM MDT (3/18)
Length of Visible Light 12h 57m
Length of Day
12h 04m
Waning Crescent, 14% of the Moon is Illuminated
Mar 18
Waning Crescent
Mar 22
New
Mar 30
First Quarter
Apr 6
Full
Apr 13
Last Quarter

Hourly Weather History & Observations

Time (MDT) Temp. Windchill Dew Point Humidity Pressure Visibility Wind Dir Wind Speed Gust Speed Precip Events Conditions
12:17 AM 43.7 °F 39.7 °F 4.5 °F 20% 29.72 in 10.0 mi South 6.9 mph - N/A   Clear
12:37 AM 45.0 °F 40.1 °F 5.9 °F 20% 29.72 in 10.0 mi South 9.2 mph 16.1 mph N/A   Clear
12:56 AM 43.5 °F 39.4 °F 5.4 °F 21% 29.72 in 10.0 mi SSW 6.9 mph - N/A   Clear
1:16 AM 42.6 °F 39.0 °F 5.7 °F 22% 29.72 in 10.0 mi SSE 5.8 mph - N/A   Clear
1:36 AM 42.1 °F 36.1 °F 7.0 °F 24% 29.72 in 10.0 mi SSW 10.4 mph - N/A   Clear
1:56 AM 45.5 °F 38.9 °F 7.5 °F 21% 29.71 in 10.0 mi SSW 15.0 mph 23.0 mph N/A   Clear
2:16 AM 46.8 °F - 7.5 °F 20% 29.71 in 10.0 mi SSW 12.7 mph 24.2 mph N/A   Clear
2:36 AM 43.3 °F 38.1 °F 7.9 °F 23% 29.70 in 10.0 mi SW 9.2 mph - N/A   Clear
2:56 AM 45.0 °F 39.3 °F 7.9 °F 22% 29.70 in 10.0 mi SSW 11.5 mph 21.9 mph N/A   Clear
3:36 AM 43.7 °F 37.3 °F 8.4 °F 24% 29.68 in 10.0 mi SSW 12.7 mph 20.7 mph N/A   Clear
3:56 AM 43.3 °F 38.6 °F 8.2 °F 24% 29.68 in 10.0 mi SSW 8.1 mph - N/A   Clear
4:16 AM 43.7 °F 38.6 °F 7.9 °F 23% 29.68 in 10.0 mi SSW 9.2 mph - N/A   Clear
4:36 AM 41.7 °F 37.3 °F 7.9 °F 25% 29.67 in 10.0 mi SSW 6.9 mph - N/A   Clear
4:56 AM 41.0 °F 38.0 °F 7.7 °F 25% 29.67 in 10.0 mi SSW 4.6 mph - N/A   Clear
5:16 AM 41.2 °F 36.6 °F 8.6 °F 26% 29.67 in 10.0 mi South 6.9 mph - N/A   Clear
5:36 AM 40.1 °F 38.0 °F 7.7 °F 26% 29.66 in 10.0 mi SSW 3.5 mph - N/A   Clear
5:56 AM 40.1 °F 36.1 °F 7.7 °F 26% 29.67 in 10.0 mi South 5.8 mph - N/A   Clear
6:16 AM 39.6 °F 36.3 °F 7.5 °F 27% 29.66 in 10.0 mi SSE 4.6 mph - N/A   Clear
6:36 AM 41.2 °F 39.2 °F 6.6 °F 24% 29.66 in 10.0 mi South 3.5 mph - N/A   Clear
6:56 AM 39.6 °F 35.4 °F 8.4 °F 28% 29.66 in 10.0 mi SSE 5.8 mph - N/A   Clear
7:16 AM 38.7 °F 31.8 °F 8.8 °F 29% 29.66 in 10.0 mi SSE 10.4 mph - N/A   Clear
7:36 AM 38.3 °F 32.5 °F 8.6 °F 29% 29.66 in 10.0 mi South 8.1 mph - N/A   Clear
7:56 AM 38.7 °F 32.9 °F 9.5 °F 30% 29.66 in 10.0 mi South 8.1 mph - N/A   Clear
8:16 AM 41.7 °F 34.4 °F 9.9 °F 27% 29.66 in 10.0 mi South 13.8 mph 20.7 mph N/A   Clear
8:36 AM 45.0 °F 38.9 °F 10.4 °F 25% 29.67 in 10.0 mi South 12.7 mph 20.7 mph N/A   Clear
8:56 AM 52.9 °F - 10.0 °F 18% 29.66 in 10.0 mi South 23.0 mph 31.1 mph N/A   Clear
9:16 AM 50.9 °F - 9.9 °F 19% 29.66 in 10.0 mi South 15.0 mph 24.2 mph N/A   Clear
9:36 AM 54.5 °F - 10.6 °F 17% 29.66 in 10.0 mi South 16.1 mph 31.1 mph N/A   Clear
9:56 AM 57.4 °F - 10.0 °F 15% 29.65 in 10.0 mi South 19.6 mph 33.4 mph N/A   Clear
10:16 AM 56.1 °F - 10.2 °F 16% 29.65 in 10.0 mi South 21.9 mph 32.2 mph N/A   Clear
10:36 AM 55.9 °F - 10.9 °F 17% 29.65 in 10.0 mi South 21.9 mph 34.5 mph N/A   Clear
10:56 AM 56.3 °F - 11.8 °F 17% 29.64 in 10.0 mi SSE 21.9 mph 34.5 mph N/A   Clear
11:16 AM 57.4 °F - 12.6 °F 17% 29.63 in 10.0 mi South 23.0 mph 33.4 mph N/A   Clear
11:36 AM 59.7 °F - 12.2 °F 15% 29.61 in 10.0 mi South 29.9 mph 39.1 mph N/A   Clear
11:56 AM 61.2 °F - 13.1 °F 15% 29.60 in 10.0 mi South 23.0 mph 38.0 mph N/A   Clear
12:16 PM 59.5 °F - 13.3 °F 16% 29.58 in 10.0 mi South 27.6 mph 38.0 mph N/A   Clear
12:36 PM 60.3 °F - 12.9 °F 16% 29.58 in 10.0 mi SSW 29.9 mph 41.4 mph N/A   Clear
12:56 PM 59.9 °F - 12.0 °F 15% 29.58 in 10.0 mi SSW 31.1 mph 41.4 mph N/A   Clear
1:16 PM 59.2 °F - 11.7 °F 15% 29.56 in 10.0 mi SSW 27.6 mph 35.7 mph N/A   Clear
1:36 PM 59.5 °F - 13.1 °F 16% 29.54 in 10.0 mi South 23.0 mph 34.5 mph N/A   Mostly Cloudy
1:56 PM 59.2 °F - 13.8 °F 17% 29.52 in 10.0 mi South 19.6 mph 32.2 mph N/A   Scattered Clouds
2:16 PM 61.0 °F - 12.9 °F 15% 29.50 in 10.0 mi SSE 24.2 mph 33.4 mph N/A   Scattered Clouds
2:36 PM 61.9 °F - 11.3 °F 14% 29.49 in 10.0 mi South 26.5 mph 35.7 mph N/A   Mostly Cloudy
2:56 PM 60.8 °F - 11.3 °F 14% 29.47 in 10.0 mi South 24.2 mph 34.5 mph N/A   Scattered Clouds
3:16 PM 60.1 °F - 11.8 °F 15% 29.46 in 10.0 mi South 26.5 mph 40.3 mph N/A   Mostly Cloudy
3:36 PM 58.3 °F - 11.7 °F 16% 29.44 in 10.0 mi South 33.4 mph 46.0 mph N/A   Mostly Cloudy
3:56 PM 57.4 °F - 15.8 °F 20% 29.44 in 10.0 mi South 32.2 mph 47.2 mph N/A   Overcast
4:16 PM 58.1 °F - 16.3 °F 20% 29.43 in 10.0 mi South 43.7 mph 51.8 mph N/A   Scattered Clouds
4:36 PM 56.8 °F - 18.5 °F 22% 29.44 in 10.0 mi South 38.0 mph 50.6 mph N/A   Mostly Cloudy
4:56 PM 55.9 °F - 19.2 °F 24% 29.44 in 7.0 mi South 35.7 mph 50.6 mph N/A   Overcast
5:16 PM 52.7 °F - 22.8 °F 31% 29.47 in 10.0 mi SW 25.3 mph 39.1 mph N/A   Overcast
5:36 PM 53.2 °F - 21.9 °F 29% 29.47 in 10.0 mi SSW 31.1 mph 39.1 mph N/A   Mostly Cloudy
5:56 PM 54.3 °F - 20.8 °F 27% 29.46 in 10.0 mi SSW 29.9 mph 42.6 mph N/A   Mostly Cloudy
6:16 PM 52.0 °F - 21.7 °F 31% 29.46 in 10.0 mi SSW 24.2 mph 32.2 mph N/A   Scattered Clouds
6:56 PM 50.7 °F - 22.6 °F 33% 29.47 in 10.0 mi SSW 23.0 mph 39.1 mph N/A   Mostly Cloudy
7:16 PM 49.3 °F - 24.3 °F 38% 29.48 in 10.0 mi SSW 31.1 mph 47.2 mph N/A   Mostly Cloudy
7:56 PM 46.4 °F 37.0 °F 26.6 °F 46% 29.48 in 10.0 mi SW 31.1 mph 38.0 mph N/A   Mostly Cloudy
8:16 PM 45.1 °F 36.6 °F 25.7 °F 47% 29.48 in 10.0 mi SSW 23.0 mph 35.7 mph N/A   Mostly Cloudy
8:36 PM 43.7 °F 34.5 °F 25.2 °F 48% 29.48 in 10.0 mi SSW 24.2 mph 35.7 mph N/A   Mostly Cloudy
8:56 PM 41.0 °F 32.2 °F 25.7 °F 55% 29.50 in 10.0 mi SSW 18.4 mph 23.0 mph N/A   Scattered Clouds
9:16 PM 40.6 °F 31.4 °F 26.4 °F 57% 29.51 in 10.0 mi SSW 19.6 mph 25.3 mph N/A   Clear
9:36 PM 41.5 °F 31.9 °F 12.2 °F 30% 29.53 in 10.0 mi SW 23.0 mph 33.4 mph N/A   Clear
10:16 PM 40.3 °F 31.6 °F 8.6 °F 27% 29.52 in 10.0 mi SW 17.3 mph 23.0 mph N/A   Scattered Clouds
10:36 PM 40.3 °F 31.9 °F 8.2 °F 27% 29.52 in 10.0 mi SW 16.1 mph 28.8 mph N/A   Clear
10:56 PM 38.5 °F 29.9 °F 8.6 °F 29% 29.53 in 10.0 mi SSW 15.0 mph - N/A   Clear
11:16 PM 37.9 °F 27.1 °F 6.4 °F 27% 29.54 in 10.0 mi WSW 23.0 mph 26.5 mph N/A   Clear
11:36 PM 38.3 °F 28.1 °F 3.2 °F 23% 29.54 in 10.0 mi SW 20.7 mph 32.2 mph N/A   Clear
11:56 PM 37.4 °F 28.2 °F 3.0 °F 24% 29.55 in 10.0 mi SW 16.1 mph 24.2 mph N/A   Clear